Waarnemingen

Advertentie
Mijn weer
Beauvechain, België (6458): temperatuur & dauwpunt: 22.09.2020 18:00:00 - 28.09.2020 18:00:00 (CEST)Beauvechain, België (6458): windsnelheid & windstoten: 22.09.2020 18:00:00 - 28.09.2020 18:00:00 (CEST)Beauvechain, België (6458): windrichting: 22.09.2020 18:00:00 - 28.09.2020 18:00:00 (CEST)Beauvechain, België (6458): luchtdruk: 22.09.2020 18:00:00 - 28.09.2020 18:00:00 (CEST)Beauvechain, België (6458): zicht: 22.09.2020 18:00:00 - 28.09.2020 18:00:00 (CEST)
Datum & Tijd tt [°C] td [°C] ff [km/u] ff [kn] fx [km/u] fx [kn] dd ppp [hPa] vv [km]
28.09.2020 18:00:00 - - - - - - - - -
28.09.2020 17:00:00 11,6 11,3 11 6 - - Z 1009,1 2,0
28.09.2020 16:00:00 11,3 11,0 11 6 18 10 Z 1009,0 6
28.09.2020 15:00:00 10,7 10,4 11 6 29 16 ZZW 1008,8 3,0
28.09.2020 14:00:00 10,5 10,0 18 10 - - ZZW 1009,2 2,0
28.09.2020 13:00:00 10,5 9,9 25 14 32 18 ZZW 1009,2 3,0
28.09.2020 12:00:00 10,8 10,3 18 10 29 16 ZZW 1009,1 3,0
28.09.2020 11:00:00 10,8 10,3 14 8 - - ZZW 1009,1 6
28.09.2020 10:00:00 10,6 10,1 15 8 22 12 Z 1009,1 4,0
28.09.2020 09:00:00 11,0 10,6 14 8 22 12 ZZW 1008,8 2,0
28.09.2020 08:00:00 11,1 10,4 11 6 - - Z 1008,7 3,0
28.09.2020 07:00:00 11,3 10,3 7 4 7 4 ZZW 1008,2 5
28.09.2020 06:00:00 11,1 10,1 4 2 11 6 N 1008,3 6
28.09.2020 05:00:00 11,1 10,1 8 4 - - WZW 1008,2 6
28.09.2020 04:00:00 11,1 10,0 4 2 4 2 N 1008,3 6
28.09.2020 03:00:00 11,0 9,9 4 2 7 4 N 1008,6 7
28.09.2020 02:00:00 11,1 9,5 4 2 - - N 1008,6 8
28.09.2020 01:00:00 11,1 9,5 4 2 4 2 N 1008,5 9
28.09.2020 00:00:00 11,3 9,5 4 2 4 2 N 1008,3 10
27.09.2020 23:00:00 11,5 9,7 4 2 - - N 1008,1 11
27.09.2020 22:00:00 11,9 8,6 4 2 4 2 N 1007,7 19
27.09.2020 21:00:00 11,8 8,7 4 2 4 2 N 1007,3 18
27.09.2020 20:00:00 11,6 9,4 4 2 - - N 1007,1 16
27.09.2020 19:00:00 12,1 8,7 7 4 14 8 NO 1006,2 20
27.09.2020 18:00:00 12,5 9,5 7 4 14 8 NO 1005,8 18
27.09.2020 17:00:00 12,8 9,6 11 6 - - NO 1005,2 12
27.09.2020 16:00:00 12,9 9,7 11 6 22 12 NO 1004,6 13
27.09.2020 15:00:00 13,0 9,9 14 8 25 14 NO 1003,7 20
27.09.2020 14:00:00 13,0 10,1 18 10 - - NO 1003,0 20
27.09.2020 13:00:00 12,8 10,6 22 12 32 18 NNO 1002,2 19
27.09.2020 12:00:00 12,1 10,1 22 12 36 19 NO 1000,5 20
27.09.2020 11:00:00 13,0 11,0 22 12 - - NO 999,2 19
27.09.2020 10:00:00 13,6 12,1 22 12 32 18 NO 997,7 10
27.09.2020 09:00:00 14,6 13,5 22 12 40 21 N 996,6 17
27.09.2020 08:00:00 14,5 13,6 25 14 - - N 997,1 19
27.09.2020 07:00:00 14,1 13,4 25 14 43 23 N 996,3 11
27.09.2020 06:00:00 13,3 12,8 29 16 47 25 NNW 996,0 20
27.09.2020 05:00:00 12,3 12,0 22 12 - - NW 996,1 3,9
27.09.2020 04:00:00 11,6 11,2 25 14 43 23 WNW 996,1 5
27.09.2020 03:00:00 11,6 10,8 22 12 36 19 NW 998,2 9
27.09.2020 02:00:00 11,3 10,7 14 8 - - NNW 999,8 10
27.09.2020 01:00:00 11,3 10,8 11 6 25 14 NW 1000,7 13
27.09.2020 00:00:00 11,3 10,7 18 10 32 18 NNW 1001,0 7
26.09.2020 23:00:00 11,0 10,5 9 5 - - W 1001,5 3,6
26.09.2020 22:00:00 10,8 9,7 11 6 14 8 W 1001,7 12
26.09.2020 21:00:00 10,6 8,9 7 4 11 6 W 1001,8 20
26.09.2020 20:00:00 10,3 8,3 11 6 - - W 1002,0 20
26.09.2020 19:00:00 10,9 9,1 14 8 25 14 W 1001,7 20
26.09.2020 18:00:00 12,0 9,4 18 10 29 16 W 1001,3 20
26.09.2020 17:00:00 12,7 8,9 18 10 - - W 1001,2 20
26.09.2020 16:00:00 12,0 8,6 22 12 32 18 W 1001,2 20
26.09.2020 15:00:00 13,2 9,3 22 12 36 19 W 1001,2 20
26.09.2020 14:00:00 12,0 8,1 24 13 - - W 1000,7 10
26.09.2020 13:00:00 11,5 8,9 22 12 32 18 W 1000,8 20
26.09.2020 12:00:00 10,6 8,8 22 12 32 18 WNW 1000,7 20
26.09.2020 11:00:00 11,0 9,3 22 12 - - WNW 1000,2 20
26.09.2020 10:00:00 10,8 9,2 14 8 29 16 WNW 999,7 20
26.09.2020 09:00:00 9,6 8,4 14 8 32 18 WNW 999,5 20
26.09.2020 08:00:00 9,8 8,8 18 10 - - WNW 999,0 5
26.09.2020 07:00:00 10,0 8,9 18 10 40 21 WNW 999,0 8
26.09.2020 06:00:00 9,8 9,0 25 14 47 25 W 998,2 5
26.09.2020 05:00:00 10,1 9,1 32 18 - - W 998,0 7
26.09.2020 04:00:00 9,6 8,9 35 19 58 31 W 997,3 3,2
26.09.2020 03:00:00 9,3 8,5 40 21 54 29 W 996,5 6
26.09.2020 02:00:00 8,8 8,0 37 20 - - W 997,5 3,1
26.09.2020 01:00:00 8,6 7,7 39 21 61 33 WZW 997,5 2,6
26.09.2020 00:00:00 9,1 7,8 36 19 54 29 W 998,2 8
25.09.2020 23:00:00 9,1 8,1 35 19 - - W 998,4 10
25.09.2020 22:00:00 9,1 8,2 32 18 50 27 W 998,4 4,2
25.09.2020 21:00:00 9,1 7,9 32 18 43 23 WZW 997,8 10
25.09.2020 20:00:00 9,3 8,2 34 18 - - WZW 998,4 8
25.09.2020 19:00:00 9,5 8,4 28 15 43 23 W 998,5 4,8
25.09.2020 18:00:00 9,8 8,3 26 14 40 21 W 998,3 8
25.09.2020 17:00:00 10,1 8,8 21 11 - - WZW 998,1 4,0
25.09.2020 16:00:00 11,1 8,4 18 10 40 21 WZW 997,8 15
25.09.2020 15:00:00 12,1 8,4 22 12 32 18 W 996,7 20
25.09.2020 14:00:00 11,7 9,0 18 10 - - WZW 996,5 20
25.09.2020 13:00:00 9,0 8,1 14 8 29 16 ZW 996,9 15
25.09.2020 12:00:00 11,0 8,7 22 12 36 19 ZZW 996,6 8
25.09.2020 11:00:00 10,4 7,2 22 12 - - ZZW 996,2 10
25.09.2020 10:00:00 9,9 - 22 12 32 18 ZZW 995,7 20
25.09.2020 09:00:00 9,8 6,3 22 12 32 18 ZZW 995,7 10
25.09.2020 08:00:00 9,1 5,8 18 10 - - Z 996,0 20
25.09.2020 07:00:00 9,0 6,0 15 8 - - Z - 10
25.09.2020 06:00:00 8,5 5,6 22 12 32 18 ZZW 996,1 20
25.09.2020 05:00:00 8,6 5,6 22 12 - - ZZW 996,3 20
25.09.2020 04:00:00 9,3 6,0 22 12 47 25 ZW 996,8 20
25.09.2020 03:00:00 10,0 6,1 29 16 47 25 ZW 996,7 20
25.09.2020 02:00:00 11,6 8,6 22 12 - - ZZW 996,4 20
25.09.2020 01:00:00 11,8 8,6 25 14 40 21 ZW 996,6 20
25.09.2020 00:00:00 12,5 10,2 25 14 40 21 ZZW 996,3 20
24.09.2020 23:00:00 13,8 10,5 18 10 - - Z 996,4 20
24.09.2020 22:00:00 14,1 10,6 18 10 29 16 Z 996,7 20
24.09.2020 21:00:00 13,6 11,1 11 6 14 8 ZZO 997,3 16
24.09.2020 20:00:00 13,5 11,2 11 6 - - ZZO 998,0 11
24.09.2020 19:00:00 14,0 11,0 14 8 29 16 Z 999,1 20
24.09.2020 18:00:00 15,4 9,6 14 8 32 18 Z 999,8 20
24.09.2020 17:00:00 15,8 8,5 29 16 - - ZZW 1000,7 20
24.09.2020 16:00:00 16,7 7,4 25 14 43 23 Z 1001,2 20
24.09.2020 15:00:00 16,4 7,8 29 16 50 27 Z 1002,0 20
24.09.2020 14:00:00 16,2 8,1 32 18 - - Z 1002,7 20
24.09.2020 13:00:00 15,9 7,5 36 19 54 29 ZZW 1003,0 20
24.09.2020 12:00:00 15,0 7,4 29 16 47 25 ZZW 1005,0 20
24.09.2020 11:00:00 13,5 8,1 29 16 - - ZZW 1004,5 20
24.09.2020 10:00:00 11,9 8,6 25 14 36 19 ZZW 1004,7 20
24.09.2020 09:00:00 11,0 8,9 22 12 32 18 ZZW 1004,7 20
24.09.2020 08:00:00 11,1 9,1 22 12 - - ZZW 1003,7 20
24.09.2020 07:00:00 11,3 9,4 22 12 32 18 ZW 1003,2 20
24.09.2020 06:00:00 11,1 9,0 25 14 36 19 ZW 1002,2 20
24.09.2020 05:00:00 11,3 9,7 25 14 - - ZW 1001,6 20
24.09.2020 04:00:00 12,0 10,3 18 10 29 16 ZW 1000,7 17
24.09.2020 03:00:00 12,3 10,8 18 10 32 18 ZW 999,9 20
24.09.2020 02:00:00 12,3 11,1 18 10 - - WZW 998,9 10
24.09.2020 01:00:00 15,6 14,5 18 10 32 18 ZZW 999,8 20
24.09.2020 00:00:00 15,5 14,5 18 10 43 23 Z 1000,1 19
23.09.2020 23:00:00 15,6 13,9 25 14 - - Z 1000,8 8
23.09.2020 22:00:00 18,2 12,9 14 8 25 14 Z 1000,5 15
23.09.2020 21:00:00 18,8 12,5 18 10 25 14 Z 1001,1 20
23.09.2020 20:00:00 19,2 12,5 18 10 - - ZZW 1001,7 20
23.09.2020 19:00:00 20,4 11,9 22 12 36 19 ZZW 1002,0 20
23.09.2020 18:00:00 20,8 11,2 22 12 43 23 ZZW 1002,6 20
23.09.2020 17:00:00 20,9 10,7 32 18 - - ZW 1003,2 20
23.09.2020 16:00:00 22,0 11,3 29 16 47 25 ZW 1003,6 20
23.09.2020 15:00:00 21,5 11,8 32 18 50 27 ZW 1003,7 20
23.09.2020 14:00:00 21,7 11,8 29 16 - - ZW 1004,2 19
23.09.2020 13:00:00 21,1 11,8 25 14 43 23 ZZW 1004,6 20
23.09.2020 12:00:00 20,6 12,5 29 16 43 23 ZW 1005,1 20
23.09.2020 11:00:00 18,7 12,9 22 12 - - ZZW 1005,7 20
23.09.2020 10:00:00 17,2 12,4 18 10 29 16 Z 1005,8 13
23.09.2020 09:00:00 14,8 11,1 14 8 18 10 Z 1006,1 15
23.09.2020 08:00:00 14,1 10,6 11 6 - - Z 1006,2 11
23.09.2020 07:00:00 13,6 9,0 11 6 14 8 ZZW 1006,2 11
23.09.2020 06:00:00 13,0 7,9 7 4 11 6 WZW 1006,3 11
23.09.2020 05:00:00 13,5 8,1 7 4 - - Z 1006,6 12
23.09.2020 04:00:00 14,1 8,1 11 6 11 6 ZZW 1006,7 12
23.09.2020 03:00:00 14,4 8,3 11 6 11 6 ZW 1007,2 11
23.09.2020 02:00:00 14,8 8,3 11 6 - - ZW 1007,2 10
23.09.2020 01:00:00 15,6 8,6 7 4 7 4 ZZW 1007,2 11
23.09.2020 00:00:00 16,1 8,5 4 2 4 2 N 1007,5 15
22.09.2020 23:00:00 16,8 8,7 4 2 - - N 1007,7 15
22.09.2020 22:00:00 17,2 9,7 4 2 7 4 N 1007,8 15
22.09.2020 21:00:00 18,0 10,0 4 2 7 4 N 1007,7 15
22.09.2020 20:00:00 19,1 9,8 4 2 - - N 1007,6 15
22.09.2020 19:00:00 21,4 9,4 7 4 11 6 NW 1007,5 15
22.09.2020 18:00:00 23,2 9,2 7 4 18 10 WNW 1007,6 15

tt = temperatuur
td = dauwpunt
ff = windsnelheid
fx = windstoten
dd = windrichting
ppp = luchtdruk
vv = zicht

Weerstations in de omgeving